Location: The Saddle
(36.8333°N, 80.3417°W)
Time: 08:14:06
(UTC-05:00)

Vanguard 2 Rocket - Pass Details

Date: 16 December 2023
Orbit: 555 x 3309 km, 32.9° (Epoch: 02 March)

Event Time Altitude Azimuth Distance (km) Brightness Sun altitude
Rises 14:17:35 0° 269° (W) 5,289 11.2 23.5°
Reaches altitude 10° 14:20:31 10° 267° (W) 4,592 11.0 23.2°
Maximum altitude 14:34:40 77° 185° (S) 2,963 10.1 21.6°
Drops below altitude 10° 14:54:57 10° 104° (ESE) 6,255 11.0 19.3°
Sets 14:59:43 0° 103° (ESE) 7,209 11.2 18.7°
